DateTimeUTC,F1_A11,F1_S11,BsB_S11,BsG_S11,BsR_S11,BbsB_S11,BbsG_S11,BbsR_S11,BaB_A11,BaG_A11,BaR_A11,Tu_S11,T_S11,Uu_S11,U_S11,P_S11,T1_A11
2021-10-28T02:00:00Z,00000200,21000000,,,,,,,0000.40,0000.38,0000.11,18.3,25.5,,00.0,0655.0,31.1
2021-10-28T02:01:00Z,00000200,21000000,,,,,,,0000.27,-000.03,0000.27,18.3,25.5,,00.0,0655.0,31.1
2021-10-28T02:02:00Z,00000200,21000000,,,,,,,0000.62,0000.86,0000.10,18.4,25.5,,00.0,0655.0,31.1
2021-10-28T02:03:00Z,00000200,61000000,,,,,,,0035.39,0032.60,0026.21,18.4,25.5,,00.0,0655.0,31.1
2021-10-28T02:04:00Z,00000200,41000000,0014.00,0010.14,0006.90,0002.76,0002.54,0001.87,0144.76,0134.32,0108.74,18.8,25.5,,00.0,0655.9,31.1
2021-10-28T02:05:00Z,00000200,01000000,0016.08,0012.24,0007.90,0003.56,0003.04,0001.96,0188.31,0175.54,0142.68,18.9,25.4,,00.0,0656.0,31.1
2021-10-28T02:06:00Z,00000200,01000000,0007.87,0005.40,0003.35,0001.67,0001.79,0001.33,0091.72,0085.43,0069.80,18.8,25.4,,00.0,0656.0,31.1
2021-10-28T02:07:00Z,00000200,01000000,0003.13,0001.91,0001.75,0000.65,0000.33,0000.46,0028.23,0026.37,0021.35,18.8,25.4,,00.0,0655.9,31.1
2021-10-28T02:08:00Z,00000200,01000000,0000.57,0000.98,0000.51,0000.34,0000.05,-000.29,0005.98,0005.53,0004.71,18.7,25.4,,00.0,0655.9,31.0
2021-10-28T02:09:00Z,00000200,01000000,0000.80,0000.23,0000.31,0000.25,0000.09,-000.02,0002.26,0001.98,0001.53,18.6,25.3,,00.0,0655.9,31.0
2021-10-28T02:10:00Z,00000200,01000000,0000.23,0000.47,0000.25,-000.37,-000.12,0000.25,0000.81,0000.59,0000.65,18.5,25.2,,00.0,0655.9,31.0
2021-10-28T02:11:00Z,00000200,01000000,0000.92,0000.08,0000.24,-000.25,0000.17,-000.11,0000.60,0000.74,0000.55,18.5,25.2,,00.0,0655.9,31.1
2021-10-28T02:12:00Z,00000200,01000000,0000.65,0000.50,0000.30,0000.15,0000.44,-000.07,0001.13,0001.04,0000.71,18.5,25.2,,00.0,0655.9,31.1
2021-10-28T02:13:00Z,00000200,01000000,0001.29,0000.73,0000.29,0000.13,-000.17,-000.09,0000.79,0000.93,0000.80,18.5,25.2,,00.0,0655.9,31.1
2021-10-28T02:14:00Z,00000200,01000000,0001.07,0000.66,0000.15,0000.40,0000.25,0000.40,0001.01,0000.65,0000.40,18.6,25.2,,00.0,0655.9,31.1
2021-10-28T02:15:00Z,00000200,01000000,0000.47,0000.31,0000.49,0000.54,0000.34,0000.04,0000.79,0000.79,0000.75,18.7,25.3,,00.0,0655.9,31.1
2021-10-28T02:16:00Z,00000200,01000000,0000.08,0000.41,0000.37,0000.46,0000.02,0000.43,0000.50,0000.86,0000.23,18.7,25.3,,00.0,0655.9,31.1
2021-10-28T02:17:00Z,00000200,01000000,0000.45,0000.44,0000.26,0000.06,0000.21,-000.12,0000.69,0000.73,0000.60,18.8,25.3,,00.0,0655.9,31.1
2021-10-28T02:18:00Z,00000200,01000000,0001.19,0000.25,0000.29,0000.32,0000.25,0000.08,0000.58,0000.28,0000.76,18.8,25.4,,00.0,0655.9,31.1
2021-10-28T02:19:00Z,00000200,01000000,-000.04,0000.44,0000.54,0000.10,0000.16,0000.11,0001.05,0000.84,0000.33,18.9,25.4,,00.0,0655.9,31.1
2021-10-28T02:20:00Z,00000200,01000000,0000.04,0000.14,0000.53,0000.02,0000.32,0000.39,0000.48,0000.42,0000.48,18.9,25.4,,00.0,0655.9,31.1
2021-10-28T02:21:00Z,00000200,01000000,0000.95,0000.27,0000.46,-000.44,0000.11,0000.15,0000.57,0000.64,0000.28,18.8,25.4,,00.0,0655.9,31.1
2021-10-28T02:22:00Z,00000200,01000000,0000.22,0000.46,0000.36,-000.57,0000.19,0000.45,0000.67,0000.54,0000.33,18.8,25.3,,00.0,0655.9,31.1
2021-10-28T02:23:00Z,00000200,01000000,0000.22,0000.33,0000.69,-000.04,0000.03,0000.58,0000.53,0000.75,0000.56,18.7,25.3,,00.0,0655.9,31.1
2021-10-28T02:24:00Z,00000200,01000000,0000.57,0000.41,0000.15,-000.14,-000.09,-000.16,0000.42,0000.35,0000.37,18.6,25.2,,00.0,0655.9,31.1
2021-10-28T02:25:00Z,00000200,01000000,0000.32,0000.02,0000.35,-000.70,0000.02,0000.17,0000.85,0000.70,0000.49,18.5,25.2,,00.0,0655.9,31.0
2021-10-28T02:26:00Z,00000200,01000000,0000.31,0000.41,0000.31,0000.32,0000.14,-000.04,0000.58,0000.53,0000.51,18.5,25.2,,00.0,0655.9,31.0
2021-10-28T02:27:00Z,00000200,01000000,0001.15,0000.21,0000.64,0000.06,0000.09,0000.24,0000.79,0000.75,0000.51,18.5,25.2,,00.0,0655.9,31.0
2021-10-28T02:28:00Z,00000200,01000000,0000.07,0000.61,0000.39,-000.07,0000.00,0000.06,0001.58,0001.68,0000.99,18.5,25.2,,00.0,0655.9,31.1
2021-10-28T02:29:00Z,00000200,01000000,0001.06,0000.74,0001.03,0000.19,0000.03,0000.38,0002.54,0002.06,0002.32,18.6,25.2,,00.0,0655.9,31.1
2021-10-28T02:30:00Z,00000200,01000000,0000.78,0000.43,0000.44,0000.69,0000.28,0000.43,0003.83,0003.63,0002.90,18.6,25.2,,00.0,0655.9,31.1
2021-10-28T02:31:00Z,00000200,01000000,0000.61,0000.59,0000.10,0000.23,-000.01,0000.01,0002.57,0002.35,0001.53,18.7,25.2,,00.0,0655.9,31.1
2021-10-28T02:32:00Z,00000200,01000000,0001.27,0000.46,0000.32,0000.27,0000.24,0000.20,0003.54,0003.13,0002.74,18.8,25.3,,00.0,0655.9,31.1
2021-10-28T02:33:00Z,00000200,01000000,0000.51,0000.33,0000.47,-000.32,0000.48,0000.05,0002.54,0002.52,0001.91,18.8,25.3,,00.0,0655.9,31.1
2021-10-28T02:34:00Z,00000200,01000000,0001.03,0000.35,0000.59,0000.41,0000.19,-000.01,0000.71,0000.86,0000.57,18.9,25.3,,00.0,0655.9,31.1
2021-10-28T02:35:00Z,00000200,01000000,0000.35,0000.29,0000.32,0000.83,0000.32,0000.09,0000.91,0000.30,0000.51,18.9,25.4,,00.0,0655.8,31.1
2021-10-28T02:36:00Z,00000200,01000000,0001.12,0000.50,0000.27,-000.34,-000.12,0000.18,0000.32,0000.93,0000.78,18.9,25.4,,00.0,0655.8,31.1
2021-10-28T02:37:00Z,00000200,01000000,0000.39,0000.45,0000.20,-000.32,-000.18,-000.14,0000.58,-000.04,-000.01,18.9,25.4,,00.0,0655.8,31.1
2021-10-28T02:38:00Z,00000200,01000000,0000.20,-000.06,0000.54,0000.34,0000.14,0000.24,0000.58,0000.87,0000.39,18.8,25.3,,00.0,0655.8,31.1
2021-10-28T02:39:00Z,00000200,01000000,0001.39,0000.31,0000.30,-000.20,0000.07,0000.01,0000.49,0000.32,0000.31,18.7,25.3,,00.0,0655.7,31.1
2021-10-28T02:40:00Z,00000200,01000000,0000.75,0000.61,0000.36,0000.36,0000.11,0000.09,0000.49,0000.60,0000.41,18.6,25.2,,00.0,0655.8,31.0
2021-10-28T02:41:00Z,00000200,01000000,0001.04,0000.47,0000.24,0000.10,0000.08,0000.01,0000.42,-000.15,0000.30,18.6,25.2,,00.0,0655.8,31.1
2021-10-28T02:42:00Z,00000200,01000000,0000.99,0000.91,0000.63,-000.52,0000.09,0000.24,0000.34,0000.75,0000.10,18.6,25.2,,00.0,0655.8,31.1
2021-10-28T02:43:00Z,00000200,01000000,0000.60,0000.44,0000.43,-000.49,0000.11,0000.21,0000.35,0000.59,0000.53,18.6,25.2,,00.0,0655.8,31.1
2021-10-28T02:44:00Z,00000200,01000000,0001.22,-000.00,0000.19,-000.33,0000.32,0000.21,0000.58,0000.41,0000.29,18.7,25.2,,00.0,0655.8,31.1
2021-10-28T02:45:00Z,00000200,01000000,0000.07,0000.23,0000.46,-000.37,0000.25,0000.32,0000.54,0000.28,0000.21,18.7,25.3,,00.0,0655.8,31.1
2021-10-28T02:46:00Z,00000200,01000000,0000.82,0000.21,0000.29,0000.55,0000.07,-000.11,0000.56,0000.70,0000.95,18.8,25.3,,00.0,0655.8,31.1
2021-10-28T02:47:00Z,00000200,01000000,0000.53,0000.52,0000.32,0000.22,0000.33,0000.12,-012.35,-012.62,-012.79,18.9,25.3,,00.0,0655.8,31.1
2021-10-28T02:48:00Z,00000200,01000000,0000.80,0000.25,0000.51,0000.33,0000.12,0000.03,-000.11,-000.03,0000.00,18.9,25.4,,00.0,0655.8,31.1
2021-10-28T02:49:00Z,00000200,01000000,0000.76,0000.36,0000.24,0000.33,0000.11,0000.05,0000.51,0000.76,0000.46,18.9,25.4,,00.0,0655.8,31.1
2021-10-28T02:50:00Z,00000200,01000000,0001.21,0000.43,0000.39,0000.22,0000.23,-000.33,0000.43,0000.14,0000.28,18.8,25.3,,00.0,0655.8,31.1
2021-10-28T02:51:00Z,00000200,01000000,-000.11,0000.63,0000.32,-000.05,0000.30,-000.09,0000.50,0000.37,0000.15,18.7,25.3,,00.0,0655.8,31.1
2021-10-28T02:52:00Z,00000200,01000000,0001.23,0000.42,0000.21,0000.06,0000.18,0000.22,0000.43,0000.28,0000.25,18.6,25.3,,00.0,0655.7,31.1
2021-10-28T02:53:00Z,00000200,01000000,0001.22,0000.29,0000.25,0001.08,0000.07,-000.05,0000.28,0000.41,0000.52,18.6,25.2,,00.0,0655.7,31.0
2021-10-28T02:54:00Z,00000200,01000000,0000.57,0000.15,0000.46,0000.51,0000.08,0000.35,-000.06,0000.26,-000.12,18.5,25.2,,00.0,0655.7,31.0
2021-10-28T02:55:00Z,00000200,01000000,0001.13,0000.24,0000.33,-000.04,0000.04,0000.14,0000.98,0000.40,0000.43,18.4,25.1,,00.0,0655.7,31.0
2021-10-28T02:56:00Z,00000200,01000000,0000.82,-000.06,0000.22,0000.56,-000.05,-000.05,0000.23,0000.59,0000.56,18.4,25.1,,00.0,0655.7,31.0
2021-10-28T02:57:00Z,00000200,41000000,,,,,,,0000.86,0000.78,0000.60,18.4,25.1,,00.0,0655.8,31.1
2021-10-28T02:58:00Z,00000200,61000000,,,,,,,0000.20,-000.02,0000.22,18.2,25.2,,00.0,0654.7,31.0
2021-10-28T02:59:00Z,00000200,21000000,,,,,,,-000.17,0000.15,-000.12,18.2,25.3,,00.0,0654.7,31.1
